Cairo, IL

1:57 AM CST on December 09, 2019 (GMT -0600)
Cairo Regional

Weather History for KCIR - October, 2019

Change the Weather History Date:

Friday, October 11, 2019

  Actual Average Record
Temperature  
Mean Temperature 56 °F -  
Max Temperature 72 °F 71 °F 92 °F (1963)
Min Temperature 41 °F 51 °F 35 °F (1990)
Degree Days  
Heating Degree Days 8    
Growing Degree Days 6 (Base 50)    
Moisture  
Dew Point 54 °F    
Average Humidity 86    
Maximum Humidity 98    
Minimum Humidity 72    
Precipitation  
Precipitation 0.65 in - - ()
Sea Level Pressure  
Sea Level Pressure 30.03 in    
Wind  
Wind Speed 9 mph ()    
Max Wind Speed 20 mph    
Max Gust Speed 29 mph    
Visibility 8.8 miles    
Events Rain , Thunderstorm    
Averages and records for this station are not official NWS values.
T = Trace of Precipitation, MM = Missing Value Source: Averaged Metar Reports

Daily Weather History Graph

Daily Weather History Graph

Search for Another Location

Airport or City:

Astronomy

Oct. 11, 2019 Rise Set
Actual Time 7:00 AM CDT 6:25 PM CDT
Civil Twilight 6:34 AM CDT 6:51 PM CDT
Nautical Twilight 6:04 AM CDT 7:22 PM CDT
Astronomical Twilight 5:34 AM CDT 7:52 PM CDT
Moon 5:50 PM CDT (10/11) 4:46 AM CDT (10/11)
Length of Visible Light 12h 17m
Length of Day
11h 25m
Waxing Gibbous, 96% of the Moon is Illuminated
Oct 11
Waxing Gibbous
Oct 13
Full
Oct 21
Last Quarter
Oct 27
New
Nov 4
First Quarter

Hourly Weather History & Observations

Time (CDT) Temp. Windchill Dew Point Humidity Pressure Visibility Wind Dir Wind Speed Gust Speed Precip Events Conditions
12:15 AM 72.7 °F - 66.2 °F 80% 29.93 in 10.0 mi SSE 11.5 mph 16.1 mph N/A   Scattered Clouds
12:35 AM 72.5 °F - 65.8 °F 80% 29.93 in 10.0 mi SSE 11.5 mph - N/A   Mostly Cloudy
12:55 AM 72.7 °F - 65.5 °F 78% 29.93 in 10.0 mi SSE 9.2 mph 17.3 mph N/A   Mostly Cloudy
1:15 AM 72.5 °F - 65.3 °F 78% 29.93 in 10.0 mi SSE 11.5 mph 16.1 mph N/A Thunderstorm Overcast
1:35 AM 72.3 °F - 65.3 °F 78% 29.92 in 10.0 mi SSE 10.4 mph - N/A Rain Light Rain
1:55 AM 71.6 °F - 65.3 °F 80% 29.91 in 10.0 mi SSE 10.4 mph - N/A   Mostly Cloudy
2:15 AM 72.0 °F - 64.9 °F 78% 29.91 in 10.0 mi SSE 10.4 mph 16.1 mph N/A   Mostly Cloudy
2:30 AM 71.8 °F - 64.8 °F 78% 29.90 in 10.0 mi SSE 9.2 mph 18.4 mph N/A   Overcast
2:55 AM 72.0 °F - 64.4 °F 77% 29.90 in 10.0 mi SSE 10.4 mph - N/A   Mostly Cloudy
3:15 AM 72.0 °F - 63.9 °F 76% 29.90 in 10.0 mi SSE 12.7 mph 19.6 mph N/A   Scattered Clouds
3:35 AM 71.8 °F - 63.9 °F 76% 29.90 in 10.0 mi South 10.4 mph - N/A   Scattered Clouds
3:55 AM 71.8 °F - 63.7 °F 76% 29.90 in 10.0 mi South 10.4 mph 16.1 mph N/A   Scattered Clouds
4:15 AM 71.8 °F - 63.5 °F 75% 29.90 in 10.0 mi South 10.4 mph 17.3 mph N/A   Mostly Cloudy
4:35 AM 72.1 °F - 63.1 °F 73% 29.90 in 10.0 mi South 9.2 mph - N/A   Overcast
4:55 AM 72.5 °F - 63.0 °F 72% 29.91 in 10.0 mi South 10.4 mph 18.4 mph N/A   Overcast
5:15 AM 72.1 °F - 62.8 °F 72% 29.91 in 10.0 mi South 11.5 mph - N/A   Overcast
5:35 AM 72.1 °F - 62.8 °F 72% 29.91 in 10.0 mi South 11.5 mph 16.1 mph N/A   Overcast
5:55 AM 72.5 °F - 63.0 °F 72% 29.91 in 10.0 mi South 9.2 mph - N/A   Overcast
6:15 AM 72.3 °F - 63.0 °F 72% 29.92 in 10.0 mi South 10.4 mph 17.3 mph N/A   Overcast
6:35 AM 71.6 °F - 63.0 °F 74% 29.93 in 10.0 mi South 6.9 mph - N/A   Overcast
6:55 AM 71.6 °F - 63.1 °F 75% 29.93 in 10.0 mi SSW 4.6 mph - N/A   Overcast
7:15 AM 71.6 °F - 63.5 °F 76% 29.93 in 10.0 mi SW 5.8 mph - N/A Thunderstorm Overcast
7:35 AM 68.5 °F - 65.3 °F 89% 29.95 in 5.0 mi South 10.4 mph - 0.05 in Rain Heavy Rain
7:50 AM 67.3 °F - 66.4 °F 97% 29.95 in 2.5 mi SSW 9.2 mph 20.7 mph 0.15 in Rain , Thunderstorm Heavy Thunderstorms and Rain
8:15 AM 67.1 °F - 66.2 °F 97% 29.95 in 5.0 mi SSW 11.5 mph 17.3 mph 0.02 in Rain Heavy Rain
8:35 AM 67.1 °F - 66.2 °F 97% 29.95 in 10.0 mi South 8.1 mph - 0.03 in Rain Rain
8:55 AM 67.1 °F - 66.6 °F 98% 29.97 in 2.0 mi South 9.2 mph 16.1 mph 0.16 in Rain Heavy Rain
9:15 AM 66.9 °F - 66.4 °F 98% 29.98 in 3.0 mi SSW 12.7 mph 18.4 mph 0.08 in Rain Heavy Rain
9:35 AM 66.2 °F - 65.3 °F 97% 29.96 in 3.0 mi South 13.8 mph 18.4 mph 0.21 in Rain Heavy Rain
9:55 AM 66.2 °F - 65.7 °F 98% 29.95 in 5.0 mi South 15.0 mph 28.8 mph 0.24 in Rain Rain
10:15 AM 65.5 °F - 64.8 °F 98% 29.96 in 5.0 mi South 12.7 mph 20.7 mph 0.01 in Rain Light Rain
10:35 AM 66.0 °F - 65.5 °F 98% 29.95 in 7.0 mi South 10.4 mph 17.3 mph 0.02 in Rain Rain
10:55 AM 67.1 °F - 66.6 °F 98% 29.95 in 5.0 mi South 12.7 mph 18.4 mph 0.02 in   Drizzle
11:15 AM 67.6 °F - 67.1 °F 98% 29.95 in 10.0 mi South 11.5 mph 18.4 mph N/A   Overcast
11:35 AM 59.9 °F - 58.6 °F 96% 30.00 in 2.5 mi WNW 19.6 mph 27.6 mph 0.05 in Rain Rain
11:55 AM 56.5 °F - 55.8 °F 97% 29.99 in 4.0 mi NW 12.7 mph 19.6 mph 0.08 in Rain Heavy Rain
12:15 PM 55.0 °F - 54.3 °F 97% 30.01 in 10.0 mi NW 9.2 mph - N/A   Overcast
12:35 PM 54.1 °F - 52.9 °F 95% 30.01 in 10.0 mi NW 9.2 mph 19.6 mph N/A   Overcast
1:15 PM 52.5 °F - 50.7 °F 94% 30.02 in 10.0 mi NW 9.2 mph - N/A   Overcast
1:35 PM 51.3 °F - 48.6 °F 90% 30.03 in 10.0 mi NW 13.8 mph 18.4 mph N/A   Overcast
1:55 PM 51.1 °F - 48.4 °F 90% 30.05 in 10.0 mi NW 12.7 mph 17.3 mph N/A   Overcast
2:15 PM 50.4 °F - 48.7 °F 94% 30.05 in 5.0 mi NW 6.9 mph 17.3 mph N/A   Overcast
2:35 PM 49.5 °F - 48.2 °F 95% 30.06 in 5.0 mi NNW 11.5 mph 21.9 mph N/A   Light Drizzle
2:55 PM 49.1 °F - 46.8 °F 92% 30.07 in 10.0 mi NW 12.7 mph 18.4 mph N/A   Overcast
3:15 PM 48.2 °F - 46.4 °F 93% 30.09 in 5.0 mi WNW 13.8 mph 17.3 mph N/A   Overcast
3:35 PM 48.2 °F - 45.5 °F 90% 30.08 in 10.0 mi NW 10.4 mph 17.3 mph N/A   Overcast
3:55 PM 48.2 °F - 44.6 °F 87% 30.10 in 10.0 mi NW 10.4 mph 19.6 mph N/A   Overcast
4:15 PM 48.2 °F - 43.9 °F 85% 30.10 in 10.0 mi NW 13.8 mph 17.3 mph N/A   Overcast
4:35 PM 47.8 °F - 43.0 °F 83% 30.11 in 10.0 mi NNW 9.2 mph - N/A   Overcast
4:55 PM 47.3 °F - 42.6 °F 84% 30.12 in 10.0 mi NNW 15.0 mph - N/A   Overcast
5:15 PM 47.3 °F - 42.8 °F 84% 30.13 in 10.0 mi NNW 12.7 mph 17.3 mph N/A   Overcast
5:35 PM 47.5 °F - 43.3 °F 86% 30.15 in 10.0 mi NW 6.9 mph - N/A   Overcast
5:55 PM 47.7 °F - 43.7 °F 86% 30.15 in 10.0 mi NW 6.9 mph - N/A   Overcast
6:15 PM 47.5 °F - 43.3 °F 86% 30.15 in 10.0 mi NW 6.9 mph - N/A   Overcast
6:35 PM 47.5 °F - 43.0 °F 84% 30.15 in 10.0 mi NW 9.2 mph - N/A   Overcast
6:55 PM 47.3 °F - 43.0 °F 85% 30.15 in 10.0 mi NNW 6.9 mph - N/A   Overcast
7:15 PM 46.6 °F - 42.8 °F 87% 30.16 in 10.0 mi NNW 5.8 mph - N/A   Scattered Clouds
7:35 PM 46.0 °F 42.5 °F 43.0 °F 89% 30.17 in 10.0 mi NW 6.9 mph - N/A   Clear
7:55 PM 45.9 °F 43.6 °F 42.8 °F 89% 30.18 in 10.0 mi NW 4.6 mph - N/A   Clear
8:15 PM 45.1 °F 43.7 °F 42.8 °F 91% 30.18 in 10.0 mi NNW 3.5 mph - N/A   Clear
8:35 PM 44.6 °F 43.1 °F 42.3 °F 91% 30.19 in 10.0 mi NW 3.5 mph - N/A   Scattered Clouds
8:55 PM 44.2 °F 42.7 °F 41.5 °F 90% 30.20 in 10.0 mi NW 3.5 mph - N/A   Scattered Clouds
9:15 PM 44.2 °F 42.7 °F 41.0 °F 88% 30.21 in 10.0 mi NW 3.5 mph - N/A   Clear
9:35 PM 43.5 °F 41.9 °F 41.0 °F 91% 30.21 in 10.0 mi NW 3.5 mph - N/A   Clear
9:55 PM 42.8 °F 41.1 °F 40.6 °F 92% 30.22 in 10.0 mi NW 3.5 mph - N/A   Clear
10:15 PM 42.8 °F 40.1 °F 40.1 °F 90% 30.23 in 10.0 mi WNW 4.6 mph - N/A   Clear
10:35 PM 41.9 °F 38.2 °F 39.6 °F 91% 30.23 in 10.0 mi WNW 5.8 mph - N/A   Clear
10:55 PM 41.9 °F 39.0 °F 39.0 °F 90% 30.23 in 10.0 mi WNW 4.6 mph - N/A   Clear
11:15 PM 42.3 °F 39.4 °F 37.9 °F 85% 30.23 in 10.0 mi WNW 4.6 mph - N/A   Clear
11:35 PM 41.4 °F 38.4 °F 37.6 °F 86% 30.23 in 10.0 mi WNW 4.6 mph - N/A   Clear
11:55 PM 41.2 °F - 37.6 °F 87% 30.23 in 10.0 mi Calm Calm - N/A   Clear